Location: Ash Shall?l al Awwal
(24.0167°N, 32.8667°E)
Time: 10:18:54
(UTC+00:00)

GPS 2-15 Rocket1 - Pass Details

Date: 02 March 2021
Orbit: 623 x 675 km, 19.8° (Epoch: 15 April)

Event Time Altitude Azimuth Distance (km) Brightness Sun altitude
Rises 16:01:17 0° 266° (W) 2,978 10.1 -3.0°
Reaches altitude 10° 16:03:49 10° 257° (WSW) 2,073 7.7 -3.6°
Maximum altitude 16:08:16 35° 192° (SSW) 1,068 4.5 -4.6°
Drops below altitude 10° 16:12:46 10° 126° (SE) 2,088 5.3 -5.6°
Enters shadow 16:14:48 - 119° (ESE) 2,809 5.9 -6.0°
